Погода в Смоленске

Погода в Смоленске : погода сейчас, прогноз погоды и архив. Всё, что Вы хотите узнать о погоде в Смоленске!

Хотите узнать прогноз погоды в Смоленске? Тогда Вам сюда: Погода в Смоленске

Поиск расширенной информации на нашем сайте:

Другие новости

Новости СМИ2

Главная страница сайта

Новости сайта

02.10.2013

Напоминаем, что на нашем новом сайте вы можете получить высокодетализированные прогнозы погоды по пунктам России, СНГ и мира (включающие важные для авиации метеовеличины, такие как направление и скорость ветра, видимость, явления погоды, количество и форма облачности, нижняя и верхняя граница облачности), а также ознакомиться с разнообразными материалами по авиационной метеорологии и подборкой полезных ссылок на эту тему.

Сайт Метеоцентр.Азия посвящён разработке технологий оптимизации авиаметеорологического обслуживания, включая проектирование и перспективное создание нескольких автоматизированных авиаметеорологических систем:
- система выпуска высокодетальных прогностических карт явлений погоды для нижнего воздушного пространства по России и ближнему зарубежью;
- система верификации прогнозов TAF (выпускаемых синоптиками официальных АМСГ РФ и ближнего зарубежья) и AUTOTAF (выпускаемых сайтом Метеоцентр.Азия) - выявление ошибок, онлайн-сопоставление с фактической погодой METAR, автоматическое внесение коррективов в прогнозы при резком отклонении фактической погоды от прогноза, подсчёт оправдываемости прогнозов по элементам и в целом;
- система обработки, анализа и отображения авиаметеорологической информации для применения провайдерами метеорологической информации.


Погода в Смоленске - сегодня

Время (UTC), дата Ветер
(°,м/с) 
Видим.   Явления Облачность Т
(°С)
Тd
(°С)
f(%) Тe
(°С)
Pmin
(гПа)
dP
(гПа)
Po
(мм)
O2
(г/м3)
Тmin Tmax R s Состояние
почвы
03 21.01.17 290 (З) 4000 м  слаб. снег  10/10 300 м 
[Ns]
+0.3 -0.1 97 -1  1014.6  -0.9  739  297  -1.1       
06 21.01.17 310 (СЗ) 4000 м  слаб. морось{снег}  10/10 200 м 
[St]
+0.6 -0.1 95 -1  1015.7  1.1  739  297  -1.1    33  равномерный
мокрый или
старый снег
100% 
09 21.01.17 320 (СЗ) 10 км  {морось}  8/8 300 м 
[Sc]
+0.4 -1.8 85 -1  1017.4  1.6  741  298           
12 21.01.17 310 (СЗ) 3{10}  10 км  {морось}  8/8 300 м 
[St]
+0.1 -4.1 73 -2  1018.1  0.7  741  299           
15 21.01.17 320 (СЗ) 10 км    6/6 300 м кучево-дожд. 
[Cb cap]
-1.1 -5 75 -3  1021.6  3.3  744  301      0.1     
18 21.01.17 310 (СЗ) 10 км    5/5 300 м 
[Sc diur, vesp]
-3.4 -5.7 84 -5  1024.4  2.4  745  305    +0.9  0.0     
21 21.01.17 300 (СЗ) 4000 м  дымка  ясно 
-6.3 -7 95 -8  1026.7  1.9  747  309           
00 22.01.17 290 (З) 4000 м  дымка  10/10 300 м 
[Sc]
-5.5 -6.7 91 -7  1027.6  0.9  748  308           
03 22.01.17 260 (З) 10 км    8/8 300 м 
[Sc]
-5.6 -6.8 91 -5  1027.5  0.1  747  308  -6.4         
06 22.01.17 260 (З) 10 км    10/10 600 м 
[Sc]
-4.4 -5.1 95 -6  1026.9  -0.5  747  307  -6.4      33  равномерный
мокрый или
старый снег
100% 
09 22.01.17 260 (З) 4000 м  слаб. снег  10/10 600 м 
[Sc]
-2.4 -3.7 91 -4  1025  -1.6  746  304           
12 22.01.17 270 (З) 10 км  позёмок{снег}  10/10 600 м 
[Sc]
-0.8 -1.8 93 -3  1023.2  -1.6  745  301           
15 22.01.17 280 (З) 10 км    10/10 600 м 
[Sc]
+0.2 -0.7 94 -2  1023.1  745  300      0.3     
18 22.01.17 280 (З) 10 км    10/10 600 м 
[Ns]
+0.4 -0.7 92 -1  1022.8  -0.3  745  300    +0.4  0.3     
21 22.01.17 280 (З) 10 км    10/10 600 м 
[Ns]
+0.1 -0.7 94 -2  1022.8  745  300           
00 23.01.17 280 (З) 10 км    10/10 600 м 
[Ns]
-0.3 -0.7 97 -2  1021.8  -1  744  300           
03 23.01.17 270 (З) 4000 м  дымка  10/10 600 м 
[Ns]
-0.6 -0.9 98 -2  1021.2  -0.6  743  300  -0.6         
06 23.01.17 260 (З) 4000 м  дымка  10/10 300 м 
[Ns]
-1.1 -1.4 98 -3  1020.5  -0.8  743  301  -1.1      33  равномерный
сухой снег
100% 
09 23.01.17 250 (З) 4000 м  дымка  10/10 300 м 
[Ns]
-1.4 -2.2 94 -3  1019.7  -0.8  742  301           
12 23.01.17 260 (З) 10 км    10/10 300 м 
[Ns]
-1.2 -2.5 91 -3  1018.2  -1.5  741  300           
15 23.01.17 260 (З) 3{10}  10 км    10/10 300 м 
[Ns]
-1.8 -2.8 93 -4  1017  -1.2  740  300           
18 23.01.17 280 (З) 10 км  дымка{снег}  10/10 300 м 
[Ns]
-2.1 -3 94 -3  1016.1  -0.8  740  301    -1  0.0     
21 23.01.17 260 (З) 4000 м  слаб. снег  10/10 300 м 
[Ns]
-2.4 -3.2 94 -3  1015.3  -0.9  739  301           
00 24.01.17 260 (З) 4000 м  слаб. снег  10/10 200 м 
[Ns]
-2.3 -3.1 94 -4  1013.6  -1.6  738  300           
03 24.01.17 260 (З) 4000 м  слаб. переохл. дождь (гололёд){снег} [диам. гололёда 1 мм]  10/10 200 м 
[Ns]
-2.2 -3 94 -4  1012.4  -1.2  737  300  -2.4       
Время (UTC), дата Ветер
(°,м/с) 
Видим.   Явления Облачность Т
(°С)
Тd
(°С)
f(%) Тe
(°С)
Pmin
(гПа)
dP
(гПа)
Po
(мм)
O2
(г/м3)
Тmin Tmax R s Состояние
почвы

Для получения пояснительной информации подведите курсор к названию столбца.

ПОГОДА в Смоленске - архив

Всё, что Вы хотите узнать о погоде в Смоленске - удобно и подробно!

Выберите нужную дату (начиная с 1 января 2015* года) и нажмите кнопку "Найти".
Будут отображены архивные сводки погоды по пункту Смоленск, начиная с указанной даты.


Отображать данные в формате CSV (для использования в таблицах Excel)


Внимание! Наш архив погоды предназначен исключительно для личного некоммерческого использования в познавательных целях. Если Вам необходимы официальные справки о состоянии погоды (для производственных, юридических, коммерческих и т.п. целей), обращайтесь в органы Росгидромета.

*Примечание: данная дата относится к архиву по метеостанциям СССР (Россия, СНГ, Балтия).
Архив по метеостанциям Зарубежной Европы и Азии (кроме Китая) хранится 10 дней, по другим регионам земного шара (Китай, Африка, Америка, Австралия, Океания) - 1 день.

Смоленск - район местоположения метеостанции


Название, широта, долгота, высота метеостанции:
Смоленск 54.8°ш. 32.1°д. 239 м над ур. моря [Российская Федерация]

Дополнительная информация

В oтличие oт бoльшинства пoгoдных сайтoв мы публикуем пoдрoбную метеoинфoрмацию в детальнoм прoфессиoнальнoм фoрмате.

Характеристики температуры и влажнoсти вoздуха измеряются на высoте 2 м в тени вдали oт зданий и деревьев.
Скoрoсть ветра измеряется на высoте 10 м (на урoвне рoста челoвека скoрoсть ветра ниже в 1.5-2 раза). Если метеoстанция нахoдится в гoрoде или в лесу, тo скoрoсть ветра занижена на 2-4 м/с пo сравнению с oткрытым местoм. Скoрoсть ветра над акватoриями крупных рек и oзёр, а также на вершинах хoлмoв на 2-5 м/с выше, чем в oбычных услoвиях.
Атмoсфернoе давление в разных тoчках местнoсти мoжет значительнo oтличаться oт давления на метеoстанции, в зависимoсти oт услoвий рельефа (при пoдъёме на 10 м давление пoнижается примернo на 1 мм рт.ст.).